GW5267 Weather Reports


time (UTC)temp
F
wind
direction
speed
knots
gust
knots
rain 1hr
in
rain 24hr
in
rain mn
in
humidity
%
barometer
mb
20260510072610 55 185 2.6 3.5 0.00 0.00 0.00 86 1012.6
20260510072107 55 199 4.3 6.1 0.00 0.00 0.00 86 1012.5
20260510071603 55 241 0.0 0.0 0.00 0.00 0.00 86 1012.6
20260510071100 52 210 0.0 0.9 0.00 0.00 0.00 90 1012.6
20260510070557 53 348 0.0 0.0 0.00 0.00 0.00 89 1012.4
20260510070054 53 98 0.0 3.5 0.00 0.00 0.00 88 1012.4
20260510065550 52 309 0.0 1.7 0.00 0.00 0.00 90 1012.5
20260510065046 53 270 0.0 0.0 0.00 0.00 0.00 87 1012.4
20260510064543 54 126 0.0 0.9 0.00 0.00 0.00 85 1012.5
20260510064040 55 135 0.0 0.9 0.00 0.00 0.00 84 1012.5
20260510063536 55 148 2.6 2.6 0.00 0.00 0.00 84 1012.5
20260510063034 55 108 1.7 2.6 0.00 0.00 0.00 84 1012.5
20260510062530 56 199 2.6 2.6 0.00 0.00 0.00 83 1012.6
20260510062025 56 158 2.6 3.5 0.00 0.00 0.00 82 1012.6
20260510061522 57 252 0.9 5.2 0.00 0.00 0.00 81 1012.5
20260510061018 57 278 2.6 5.2 0.00 0.00 0.00 81 1012.5
20260510060515 57 265 0.9 7.0 0.00 0.00 0.00 80 1012.7
20260510060011 57 110 0.0 2.6 0.00 0.00 0.00 81 1012.7
20260510055507 57 90 0.9 1.7 0.00 0.00 0.00 81 1012.8
20260510055005 57 140 0.0 1.7 0.00 0.00 0.00 81 1012.6
20260510054500 57 213 0.9 3.5 0.00 0.00 0.00 81 1012.6
20260510053956 57 101 0.9 1.7 0.00 0.00 0.00 80 1013.0
20260510053451 57 61 0.0 3.5 0.00 0.00 0.00 80 1013.0
20260510052947 57 191 0.9 6.1 0.00 0.00 0.00 81 1013.0
20260510052443 56 247 0.9 3.5 0.00 0.00 0.00 82 1013.0
20260510051940 56 122 2.6 3.5 0.00 0.00 0.00 82 1013.0
20260510051436 55 6 0.0 1.7 0.00 0.00 0.00 84 1013.0
20260510050932 54 328 0.9 1.7 0.00 0.00 0.00 86 1012.7
20260510050429 54 104 1.7 1.7 0.00 0.00 0.00 84 1012.7
20260510045927 54 72 0.9 1.7 0.00 0.00 0.00 84 1012.8
20260510045424 54 110 0.9 1.7 0.00 0.00 0.00 84 1012.8
20260510044920 53 89 0.0 0.0 0.00 0.00 0.00 86 1012.8
20260510044417 54 39 1.7 1.7 0.00 0.00 0.00 86 1012.4
20260510043914 54 104 1.7 3.5 0.00 0.00 0.00 84 1012.5
20260510043410 53 8 0.9 1.7 0.00 0.00 0.00 87 1012.6
20260510042908 51 9 0.0 0.0 0.00 0.00 0.00 90 1012.5
20260510042404 51 9 0.0 0.9 0.00 0.00 0.00 91 1012.6
20260510041900 51 9 0.0 0.0 0.00 0.00 0.00 90 1012.5
20260510041357 51 342 0.0 0.0 0.00 0.00 0.00 90 1012.6
20260510040855 51 342 0.0 0.0 0.00 0.00 0.00 89 1012.7
20260510040352 51 342 0.0 0.9 0.00 0.00 0.00 89 1012.4
20260510035847 51 334 0.0 0.0 0.00 0.16 0.16 90 1012.5
20260510035343 51 335 0.0 0.0 0.00 0.16 0.16 89 1012.6
20260510034839 51 329 0.0 0.0 0.00 0.16 0.16 89 1012.4
20260510034337 51 316 0.0 0.0 0.00 0.16 0.16 88 1012.3
20260510033833 52 309 0.0 0.0 0.00 0.16 0.16 88 1012.2
20260510033330 52 313 0.0 0.0 0.00 0.16 0.16 87 1012.3
20260510032826 52 316 0.0 0.9 0.00 0.16 0.16 87 1012.2
20260510032323 53 313 0.0 0.9 0.00 0.16 0.16 86 1012.3
20260510031819 53 319 0.0 0.0 0.00 0.16 0.16 85 1012.3
20260510031315 53 334 0.0 0.0 0.00 0.16 0.16 85 1012.1
20260510030815 53 356 0.0 0.9 0.00 0.16 0.16 84 1012.0
20260510030311 54 4 0.0 1.7 0.00 0.16 0.16 82 1012.0
20260510025809 54 359 0.0 0.0 0.00 0.16 0.16 82 1012.2
20260510025306 54 157 0.0 1.7 0.00 0.16 0.16 82 1012.2
20260510024803 54 291 0.0 0.9 0.00 0.16 0.16 82 1012.1
20260510024300 53 281 0.0 0.9 0.00 0.16 0.16 83 1012.2
20260510023756 54 289 1.7 1.7 0.00 0.16 0.16 83 1012.2
20260510023253 53 284 0.0 0.0 0.00 0.16 0.16 84 1012.0
20260510022749 53 284 0.0 0.9 0.00 0.16 0.16 82 1012.0
20260510022244 54 282 0.0 0.9 0.00 0.16 0.16 83 1012.1
20260510021743 55 278 0.9 0.9 0.00 0.16 0.16 82 1011.8
20260510021242 55 276 0.0 0.9 0.00 0.16 0.16 80 1011.8
20260510020737 55 143 0.9 0.9 0.00 0.16 0.16 79 1011.6
20260510020236 54 290 0.0 0.0 0.00 0.16 0.16 82 1011.8
20260510015733 54 8 0.0 0.0 0.00 0.16 0.16 82 1011.7
20260510015229 54 304 0.0 0.0 0.00 0.16 0.16 82 1011.6
20260510014724 55 295 0.0 0.0 0.00 0.16 0.16 80 1011.6
20260510014222 54 293 0.0 1.7 0.00 0.16 0.16 81 1011.6
20260510013717 54 291 0.0 0.0 0.00 0.16 0.16 81 1011.6
20260510013214 54 291 0.0 0.9 0.00 0.16 0.16 82 1011.3
20260510012713 55 289 0.0 0.9 0.00 0.16 0.16 80 1011.5
20260510012209 56 286 0.0 0.9 0.00 0.16 0.16 78 1011.4
20260510011704 56 299 0.0 0.9 0.00 0.16 0.16 78 1011.4
20260510011200 56 291 1.7 1.7 0.00 0.16 0.16 77 1011.5
20260510010656 56 295 0.9 1.7 0.00 0.16 0.16 77 1011.2
20260510010153 56 295 0.9 0.9 0.00 0.16 0.16 77 1011.2
20260510005649 56 157 0.9 1.7 0.00 0.16 0.16 77 1011.2
20260510005146 56 317 0.0 0.0 0.00 0.16 0.16 77 1010.8
20260510004645 56 303 0.0 0.0 0.00 0.16 0.16 77 1010.9
20260510004142 57 297 0.9 0.9 0.00 0.16 0.16 77 1011.1
20260510003639 56 304 0.0 0.0 0.00 0.16 0.16 77 1010.6
20260510003135 57 304 0.0 0.0 0.00 0.16 0.16 75 1010.7
20260510002635 57 304 0.0 0.0 0.00 0.16 0.16 75 1010.5
20260510002132 58 304 0.9 0.9 0.00 0.16 0.16 74 1010.5
20260510001628 58 302 0.0 0.9 0.00 0.16 0.16 73 1010.6
20260510001128 59 296 0.0 0.9 0.00 0.16 0.16 72 1010.5
20260510000627 59 296 0.0 0.9 0.00 0.16 0.16 71 1010.3
20260510000125 60 273 1.7 2.6 0.00 0.16 0.16 68 1010.3
20260509235621 60 267 1.7 2.6 0.00 0.16 0.16 68 1010.2
20260509235118 60 262 0.0 2.6 0.00 0.16 0.16 68 1010.4
20260509234614 60 285 1.7 5.2 0.00 0.16 0.16 68 1010.2
20260509234112 60 204 0.9 1.7 0.00 0.16 0.16 68 1010.1
20260509233609 61 272 1.7 1.7 0.00 0.16 0.16 67 1010.2
20260509233107 61 267 1.7 3.5 0.00 0.16 0.16 66 1010.0
20260509232603 61 274 0.0 3.5 0.00 0.16 0.16 67 1010.1
20260509232100 61 263 4.3 6.1 0.00 0.16 0.16 67 1010.2
20260509231556 61 256 3.5 5.2 0.00 0.16 0.16 66 1010.2
20260509231054 61 258 0.9 1.7 0.00 0.16 0.16 67 1010.2
20260509230550 61 247 0.0 2.6 0.00 0.16 0.16 67 1010.3
20260509230048 61 260 3.5 5.2 0.00 0.16 0.16 66 1010.3
20260509225543 61 252 1.7 5.2 0.00 0.16 0.16 65 1010.4
20260509225039 62 275 3.5 7.8 0.00 0.16 0.16 65 1010.3
20260509224535 62 266 2.6 7.0 0.00 0.16 0.16 64 1010.5
20260509224032 62 233 7.8 9.6 0.00 0.16 0.16 63 1010.6
20260509223529 63 289 1.7 5.2 0.00 0.16 0.16 67 1010.4
20260509223027 63 251 3.5 6.1 0.00 0.16 0.16 63 1010.3
20260509222522 63 259 2.6 6.1 0.00 0.16 0.16 65 1010.3
20260509222018 63 201 2.6 5.2 0.00 0.16 0.16 65 1010.4
20260509221514 63 228 4.3 7.8 0.00 0.16 0.16 64 1010.3
20260509221010 62 220 6.1 7.8 0.00 0.16 0.16 65 1010.5
20260509220506 63 187 2.6 5.2 0.00 0.16 0.16 65 1010.4
20260509220003 62 227 3.5 5.2 0.00 0.16 0.16 65 1010.4
20260509215458 62 231 2.6 9.6 0.00 0.16 0.16 66 1010.4
20260509214955 63 305 6.1 11.3 0.00 0.16 0.16 63 1010.5
20260509214453 63 273 3.5 7.8 0.00 0.16 0.16 65 1010.4
20260509213949 64 278 7.0 9.6 0.00 0.16 0.16 63 1010.5
20260509213445 64 227 3.5 7.0 0.00 0.16 0.16 64 1010.3
20260509212943 63 284 7.0 7.8 0.00 0.16 0.16 62 1010.4
20260509212440 62 223 4.3 6.1 0.00 0.16 0.16 64 1010.3
20260509211936 62 272 5.2 7.8 0.00 0.16 0.16 64 1010.3
20260509211432 62 304 7.0 13.0 0.00 0.16 0.16 64 1010.4
20260509210928 63 282 7.8 15.6 0.00 0.16 0.16 64 1010.3
20260509210426 64 288 9.6 14.8 0.00 0.16 0.16 63 1010.3
20260509205921 65 250 7.0 11.3 0.00 0.16 0.16 62 1010.5
20260509205420 64 265 5.2 7.8 0.00 0.16 0.16 64 1010.3
20260509204917 64 257 1.7 7.0 0.00 0.16 0.16 64 1010.6
20260509204413 63 244 2.6 3.5 0.00 0.16 0.16 65 1010.4
20260509203910 64 270 4.3 7.8 0.00 0.16 0.16 66 1010.4
20260509203406 62 300 5.2 12.2 0.00 0.16 0.16 66 1010.6
20260509202904 63 267 5.2 13.9 0.00 0.16 0.16 64 1010.4
20260509202359 63 274 3.5 7.8 0.00 0.16 0.16 67 1010.7
20260509201854 63 282 4.3 7.8 0.00 0.16 0.16 67 1010.6
20260509201350 63 251 2.6 6.1 0.00 0.16 0.16 67 1010.7
20260509200847 61 267 5.2 8.7 0.00 0.16 0.16 70 1010.8
20260509200342 62 254 4.3 5.2 0.00 0.16 0.16 68 1010.8
20260509195839 61 249 1.7 5.2 0.00 0.16 0.16 71 1010.9
20260509195339 61 275 3.5 3.5 0.00 0.16 0.16 70 1011.1
20260509194839 60 260 2.6 7.0 0.00 0.16 0.16 69 1011.1
20260509194335 60 275 3.5 7.8 0.00 0.16 0.16 68 1010.9
20260509193833 61 285 4.3 7.0 0.00 0.16 0.16 68 1010.9
20260509193332 60 243 4.3 7.8 0.00 0.16 0.16 69 1011.1
20260509192829 61 254 5.2 7.0 0.00 0.16 0.16 69 1010.9
20260509192325 61 285 3.5 8.7 0.00 0.16 0.16 67 1010.9
20260509191820 60 193 7.0 9.6 0.00 0.16 0.16 68 1011.1
20260509191316 60 254 7.8 13.0 0.00 0.16 0.16 67 1011.2
20260509190812 60 202 4.3 7.0 0.00 0.16 0.16 71 1011.1
20260509190310 60 202 3.5 6.1 0.00 0.16 0.16 74 1011.1
20260509185807 60 250 1.7 2.6 0.00 0.16 0.16 73 1010.9
20260509185306 59 273 1.7 2.6 0.00 0.16 0.16 77 1010.9
20260509184800 58 283 0.9 2.6 0.00 0.16 0.16 75 1010.9
20260509184258 58 273 0.0 2.6 0.00 0.16 0.16 78 1010.9
20260509183754 58 254 1.7 2.6 0.00 0.16 0.16 83 1011.3
20260509183249 58 292 0.0 2.6 0.00 0.16 0.16 81 1011.1
20260509182745 58 245 2.6 3.5 0.00 0.16 0.16 80 1011.2
20260509182243 58 259 1.7 2.6 0.00 0.16 0.16 80 1011.2
20260509181740 57 286 0.0 2.6 0.00 0.16 0.16 79 1011.2
20260509181237 57 300 1.7 3.5 0.00 0.16 0.16 80 1011.2
20260509180734 57 290 0.0 1.7 0.00 0.16 0.16 80 1011.3
20260509180231 57 210 0.0 0.9 0.00 0.16 0.16 81 1011.1
20260509175727 56 200 2.6 2.6 0.00 0.16 0.16 81 1011.1
20260509175223 56 250 0.9 1.7 0.00 0.16 0.16 83 1011.4
20260509174719 56 284 1.7 3.5 0.00 0.16 0.16 80 1011.2
20260509174215 57 259 0.0 0.9 0.00 0.16 0.16 84 1011.2
20260509173711 56 213 0.0 0.9 0.00 0.16 0.16 82 1011.1
20260509173207 56 213 1.7 2.6 0.00 0.16 0.16 83 1011.2
20260509172703 55 239 0.9 2.6 0.00 0.16 0.16 84 1011.2
20260509172200 55 215 0.0 0.9 0.00 0.16 0.16 84 1011.3
20260509171655 55 259 0.9 0.9 0.00 0.16 0.16 83 1011.1
20260509171151 55 248 0.0 0.0 0.00 0.16 0.16 83 1011.3
20260509170649 55 193 1.7 1.7 0.00 0.16 0.16 83 1011.3
20260509170145 55 165 0.9 1.7 0.00 0.16 0.16 85 1011.4
20260509165643 55 214 1.7 1.7 0.00 0.16 0.16 86 1011.3
20260509165139 55 151 0.0 1.7 0.00 0.16 0.16 88 1011.1
20260509164635 54 151 2.6 3.5 0.00 0.16 0.16 87 1011.4
20260509164131 54 101 1.7 1.7 0.00 0.16 0.16 88 1011.2
20260509163628 54 264 0.9 1.7 0.00 0.16 0.16 88 1011.2
20260509163123 54 198 0.0 0.9 0.00 0.16 0.16 91 1011.5
20260509162616 53 207 3.5 3.5 0.00 0.16 0.16 91 1011.2
20260509162112 53 140 0.9 1.7 0.00 0.16 0.16 90 1011.4
20260509161609 53 201 0.9 3.5 0.00 0.16 0.16 89 1011.5
20260509161108 54 201 1.7 1.7 0.00 0.16 0.16 90 1011.7
20260509160605 54 281 0.0 0.0 0.00 0.16 0.16 90 1011.7
20260509160100 54 242 0.9 2.6 0.00 0.16 0.16 91 1011.8
20260509155557 53 279 1.7 2.6 0.00 0.16 0.16 90 1011.8
20260509155053 53 206 2.6 2.6 0.00 0.16 0.16 91 1011.7
20260509154549 54 208 0.9 1.7 0.00 0.16 0.16 93 1011.9
20260509154047 53 229 1.7 2.6 0.07 0.16 0.16 93 1011.9
20260509153543 53 168 1.7 2.6 0.07 0.16 0.16 92 1011.9
20260509153035 52 176 0.0 0.9 0.00 0.15 0.15 93 1012.0
20260509152530 52 204 0.9 1.7 0.00 0.15 0.15 94 1012.1
20260509152028 52 202 0.9 1.7 0.00 0.15 0.15 93 1012.1
20260509151523 52 213 0.0 2.6 0.00 0.15 0.15 93 1012.0
20260509151021 51 202 1.7 2.6 0.00 0.15 0.15 92 1012.0
20260509150518 52 188 0.0 1.7 0.00 0.15 0.15 93 1012.2
20260509150017 52 260 0.9 2.6 0.00 0.15 0.15 93 1012.0
20260509145512 51 250 0.9 1.7 0.00 0.15 0.15 93 1012.1
20260509145007 51 167 1.7 2.6 0.00 0.15 0.15 94 1012.1
20260509144504 51 237 1.7 2.6 0.00 0.15 0.15 94 1011.8
20260509144001 52 161 0.9 1.7 0.00 0.15 0.15 95 1011.8
20260509143459 52 254 1.7 2.6 0.00 0.15 0.15 95 1011.9
20260509142955 52 252 0.0 2.6 0.00 0.15 0.15 94 1011.8
20260509142452 51 259 0.0 0.0 0.00 0.15 0.15 94 1011.7
20260509141947 52 274 0.0 1.7 0.00 0.15 0.15 95 1011.8
20260509141444 52 286 0.9 2.6 0.00 0.15 0.15 94 1012.1
20260509140941 52 300 0.0 1.7 0.05 0.15 0.15 94 1012.0
20260509140437 51 234 0.0 1.7 0.05 0.15 0.15 94 1012.0
20260509135936 51 164 1.7 2.6 0.00 0.14 0.14 94 1011.9
20260509135433 51 189 0.9 1.7 0.00 0.14 0.14 96 1011.9
20260509134930 51 125 0.0 2.6 0.00 0.14 0.14 95 1011.9
20260509134427 51 141 0.9 1.7 0.00 0.14 0.14 95 1011.8
20260509133925 51 197 0.0 0.0 0.00 0.14 0.14 96 1012.0
20260509133421 51 190 0.9 1.7 0.00 0.14 0.14 96 1012.1
20260509132920 50 221 0.9 0.9 0.00 0.14 0.14 96 1011.9
20260509132417 50 208 0.0 0.9 0.00 0.14 0.14 97 1012.2
20260509131914 50 221 0.0 0.9 0.00 0.14 0.14 97 1012.0
20260509131411 50 102 0.9 0.9 0.00 0.14 0.14 98 1012.1
20260509130908 50 124 0.0 0.9 0.00 0.14 0.14 99 1012.1
20260509130403 50 205 0.0 0.0 0.07 0.14 0.14 98 1012.3
20260509125900 49 189 0.0 0.9 0.07 0.14 0.14 99 1012.3
20260509125356 50 196 0.9 1.7 0.05 0.13 0.13 99 1012.4
20260509124852 49 209 0.0 0.0 0.00 0.12 0.12 99 1012.4
20260509124350 49 209 0.0 0.0 0.00 0.12 0.12 99 1012.5
20260509123848 49 209 0.0 0.0 0.00 0.12 0.12 99 1012.3
20260509123345 49 257 0.0 0.0 0.07 0.12 0.12 99 1012.3
20260509122840 49 257 0.0 0.9 0.05 0.11 0.11 99 1012.5
20260509122337 49 183 2.6 2.6 0.05 0.11 0.11 99 1012.4
20260509121834 49 204 1.7 1.7 0.00 0.10 0.10 98 1012.5
20260509121331 49 208 0.0 0.0 0.07 0.10 0.10 99 1012.4
20260509120830 49 214 0.0 0.0 0.07 0.10 0.10 99 1012.3
20260509120327 49 208 0.0 0.0 0.05 0.09 0.09 99 1012.2
20260509115825 49 207 0.0 0.0 0.05 0.09 0.09 99 1012.4
20260509115322 49 207 0.0 0.9 0.00 0.08 0.08 98 1012.4
20260509114820 49 272 0.0 0.9 0.00 0.08 0.08 98 1012.5
20260509114318 49 273 0.0 0.0 0.00 0.08 0.08 98 1012.3
20260509113817 48 273 0.0 0.9 0.00 0.08 0.08 99 1012.4
20260509113314 48 236 0.0 0.9 0.00 0.08 0.08 99 1012.1
20260509112810 48 160 0.9 0.9 0.07 0.08 0.08 99 1012.2
20260509112308 48 107 0.0 1.7 0.00 0.07 0.07 99 1012.1
20260509111804 48 176 0.0 0.9 0.00 0.07 0.07 99 1012.4
20260509111301 48 180 0.0 0.0 0.05 0.07 0.07 99 1012.2
20260509110759 48 176 0.0 0.9 0.05 0.07 0.07 99 1012.2
20260509110255 48 115 0.9 1.7 0.00 0.06 0.06 99 1012.1
20260509105754 48 354 0.0 0.0 0.00 0.06 0.06 99 1012.1
20260509105251 48 354 0.0 0.0 0.00 0.06 0.06 99 1012.1
20260509104747 48 354 0.0 0.0 0.07 0.06 0.06 99 1012.0
20260509104244 48 354 0.0 0.0 0.07 0.06 0.06 99 1012.2
20260509103743 48 354 0.0 0.0 0.00 0.05 0.05 99 1011.9
20260509103239 48 354 0.0 0.9 0.00 0.05 0.05 98 1012.3
20260509102738 48 354 0.9 0.9 0.00 0.05 0.05 97 1012.0
20260509102234 48 312 0.0 0.0 0.00 0.05 0.05 95 1012.3
20260509101731 48 330 0.0 0.0 0.07 0.05 0.05 95 1012.1
20260509101227 48 317 0.0 0.0 0.07 0.05 0.05 95 1012.3
20260509100724 48 311 0.0 0.0 0.05 0.04 0.04 95 1012.3
20260509100222 48 319 0.9 1.7 0.05 0.04 0.04 95 1012.4
20260509095718 48 314 0.0 0.0 0.00 0.03 0.03 95 1012.5
20260509095215 48 295 0.0 0.0 0.07 0.03 0.03 94 1012.5
20260509094712 48 308 0.0 0.0 0.07 0.03 0.03 94 1012.4
20260509094209 49 308 0.0 0.0 0.00 0.02 0.02 93 1012.5
20260509093708 49 308 0.0 0.0 0.00 0.02 0.02 93 1012.6
20260509093204 49 282 0.0 0.0 0.00 0.02 0.02 91 1012.5
20260509092702 49 286 0.0 0.9 0.00 0.02 0.02 90 1012.5
20260509092200 49 276 0.9 0.9 0.00 0.02 0.02 90 1012.7
20260509091658 50 308 0.0 0.0 0.05 0.02 0.02 87 1012.4
20260509091154 50 292 0.0 0.0 0.12 0.02 0.02 84 1012.5
20260509090652 50 295 0.0 1.7 0.07 0.01 0.01 84 1012.5
20260509090149 51 302 1.7 3.5 0.00 0.00 0.00 82 1012.5
20260509085646 52 292 1.7 3.5 0.00 0.00 0.00 80 1012.6
20260509085137 52 275 3.5 8.7 0.00 0.00 0.00 76 1012.8
20260509084635 53 252 3.5 7.8 0.00 0.00 0.00 76 1012.5
20260509084131 54 253 5.2 7.0 0.00 0.00 0.00 73 1012.5
20260509083629 54 290 3.5 7.8 0.00 0.00 0.00 70 1012.3
20260509083125 54 282 5.2 7.8 0.00 0.00 0.00 70 1012.0
20260509082623 55 290 3.5 7.0 0.00 0.00 0.00 66 1012.0
20260509082119 55 260 0.9 5.2 0.00 0.00 0.00 65 1012.2
20260509081616 55 285 2.6 3.5 0.00 0.00 0.00 64 1011.8
20260509081114 55 289 1.7 5.2 0.00 0.00 0.00 63 1011.8
20260509080612 55 269 2.6 6.1 0.00 0.00 0.00 65 1011.5
20260509080109 55 176 0.0 0.9 0.00 0.00 0.00 64 1011.7
20260509075607 55 237 2.6 3.5 0.00 0.00 0.00 63 1011.6
20260509075105 54 242 0.9 2.6 0.00 0.00 0.00 62 1011.7
20260509074601 54 287 0.0 1.7 0.00 0.00 0.00 64 1011.5
20260509074057 53 230 0.0 5.2 0.00 0.00 0.00 67 1011.5
20260509073554 52 326 0.0 0.0 0.00 0.00 0.00 67 1011.4
20260509073050 52 326 0.0 0.0 0.00 0.00 0.00 70 1011.4